Volver al catálogo

USA 250

ActivoMilitarGEO
NORAD 39652·PAYLOAD·🇺🇸 United States

Lanzado Apr 10, 2014 desde Cape Canaveral Space Force Station

Loading…

TLE

ActualizadoSource: Mike McCants

Época: Sep 14, 2026, 22:48 UTC

1 39652U 14020A   26257.95053483  .00000000  00000-0  00000-0 0    04
2 39652   5.3689  58.0440 0003293 108.1004 251.9542  1.00270000 14553

Sigue USA 250 en tiempo real con AllMySat

Download on the App Store